#timestamp,LO_Frequency,Hit,Temp,Hum 
1480176015.0,286046994.2,N,0.0,0.0
1480176015.9,286046994.2,N,0.0,0.0
1480176035.7,286046994.1,N,0.0,0.0
1480176055.6,286046993.5,N,0.0,0.0
1480176075.4,286046995.6,N,0.0,0.0
1480176095.3,286046996.4,N,0.0,0.0
1480176115.1,286046996.0,N,0.0,0.0
1480176135.8,286046996.0,N,0.0,0.0
1480176155.7,286046995.8,N,0.0,0.0
1480176175.5,286046993.3,N,0.0,0.0
1480176195.4,286046993.5,N,0.0,0.0
1480176215.2,286046996.3,N,0.0,0.0
1480176235.0,286046995.6,N,0.0,0.0
1480176235.9,286046995.6,N,0.0,0.0
1480176255.8,286046995.3,N,0.0,0.0
1480176275.6,286046997.1,N,0.0,0.0
1480176295.4,286046999.2,N,0.0,0.0
1480176315.3,286046998.1,N,0.0,0.0
1480176335.1,286046998.7,N,0.0,0.0
1480176355.9,286046999.5,N,0.0,0.0
1480176375.7,286046999.0,N,0.0,0.0
1480176395.5,286047001.2,N,0.0,0.0
1480176415.4,286046998.1,N,0.0,0.0
1480176435.2,286046998.6,N,0.0,0.0
1480176455.0,286046998.4,N,0.0,0.0
1480176455.9,286046998.4,N,0.0,0.0
1480176475.8,286047001.1,N,0.0,0.0
1480176495.6,286046999.0,N,0.0,0.0
1480176515.5,286046998.7,N,0.0,0.0
1480176535.3,286047000.8,N,0.0,0.0
1480176555.1,286047000.3,N,0.0,0.0
1480176575.9,286047000.9,N,0.0,0.0
1480176595.7,286047001.1,N,0.0,0.0
1480176615.5,286046998.6,N,0.0,0.0
1480176635.4,286046999.3,N,0.0,0.0
1480176655.2,286047000.4,N,0.0,0.0
1480176675.1,286047000.5,N,0.0,0.0
1480176676.0,286047000.5,N,0.0,0.0
1480176695.8,286047000.5,N,0.0,0.0
1480176715.6,286047002.0,N,0.0,0.0
1480176735.5,286047004.4,N,0.0,0.0
1480176755.3,286047001.6,N,0.0,0.0
1480176775.2,286047002.2,N,0.0,0.0
1480176795.9,286047002.4,N,0.0,0.0
1480176815.7,286047002.1,N,0.0,0.0
1480176835.6,286047004.1,N,0.0,0.0
1480176855.4,286047003.5,N,0.0,0.0
1480176875.2,286047003.2,N,0.0,0.0
1480176895.1,286047005.7,N,0.0,0.0
1480176896.0,286047005.7,N,0.0,0.0
1480176915.8,286047005.2,N,0.0,0.0
1480176935.7,286047007.1,N,0.0,0.0
1480176955.5,286047006.9,N,0.0,0.0
1480176975.3,286047005.0,N,0.0,0.0
1480176995.2,286047006.7,N,0.0,0.0
1480177015.0,286047007.6,N,0.0,0.0
1480177015.9,286047007.6,N,0.0,0.0
1480177035.8,286047006.2,N,0.0,0.0
1480177055.6,286047008.5,N,0.0,0.0
1480177075.4,286047007.9,N,0.0,0.0
1480177095.3,286047008.5,N,0.0,0.0
1480177115.1,286047007.9,N,0.0,0.0
1480177135.9,286047007.9,N,0.0,0.0
1480177155.7,286047006.1,N,0.0,0.0
1480177175.5,286047008.9,N,0.0,0.0
1480177195.4,286047009.0,N,0.0,0.0
1480177215.2,286047008.0,N,0.0,0.0
1480177235.0,286047010.4,N,0.0,0.0
1480177235.9,286047010.4,N,0.0,0.0
1480177255.8,286047010.6,N,0.0,0.0
1480177275.6,286047008.5,N,0.0,0.0
1480177295.5,286047008.5,N,0.0,0.0
1480177315.3,286047007.7,N,0.0,0.0
1480177335.1,286047010.4,N,0.0,0.0
1480177355.9,286047008.6,N,0.0,0.0
1480177375.7,286047009.9,N,0.0,0.0
1480177395.5,286047010.3,N,0.0,0.0
1480177415.4,286047008.9,N,0.0,0.0
1480177435.2,286047008.7,N,0.0,0.0
1480177455.1,286047008.8,N,0.0,0.0
1480177456.0,286047008.8,N,0.0,0.0
1480177475.8,286047007.9,N,0.0,0.0
1480177495.6,286047009.0,N,0.0,0.0
1480177515.5,286047008.0,N,0.0,0.0
1480177535.3,286047007.7,N,0.0,0.0
1480177555.2,286047010.4,N,0.0,0.0
1480177575.9,286047008.1,N,0.0,0.0
1480177595.7,286047010.1,N,0.0,0.0
1480177615.6,286047009.6,N,0.0,0.0
1480177635.4,286047009.7,N,0.0,0.0
1480177655.2,286047009.6,N,0.0,0.0
1480177675.1,286047010.1,N,0.0,0.0
1480177676.0,286047010.1,N,0.0,0.0
1480177695.8,286047009.9,N,0.0,0.0
1480177715.7,286047010.3,N,0.0,0.0
1480177735.5,286047010.6,N,0.0,0.0
1480177755.3,286047010.1,N,0.0,0.0
1480177775.2,286047009.8,N,0.0,0.0
1480177795.0,286047009.7,N,0.0,0.0
1480177795.9,286047009.7,N,0.0,0.0
1480177815.8,286047009.8,N,0.0,0.0
1480177835.6,286047009.5,N,0.0,0.0
1480177855.4,286047012.4,N,0.0,0.0
1480177875.3,286047009.7,N,0.0,0.0
1480177895.1,286047011.4,N,0.0,0.0
1480177915.8,286047013.5,N,0.0,0.0
1480177935.7,286047012.8,N,0.0,0.0
1480177955.5,286047012.8,N,0.0,0.0
1480177975.4,286047012.6,N,0.0,0.0
1480177995.2,286047015.1,N,0.0,0.0
1480178015.0,286047013.2,N,0.0,0.0
1480178015.9,286047013.2,N,0.0,0.0
1480178035.8,286047013.7,N,0.0,0.0
1480178055.6,286047012.8,N,0.0,0.0
1480178075.4,286047012.9,N,0.0,0.0
1480178095.3,286047013.1,N,0.0,0.0
1480178115.1,286047011.0,N,0.0,0.0
1480178135.9,286047010.9,N,0.0,0.0
1480178155.7,286047013.1,N,0.0,0.0
1480178175.5,286047013.0,N,0.0,0.0
1480178195.4,286047015.6,N,0.0,0.0
1480178215.2,286047012.6,N,0.0,0.0
1480178235.1,286047012.9,N,0.0,0.0
1480178236.0,286047012.9,N,0.0,0.0
1480178255.8,286047013.0,N,0.0,0.0
1480178275.6,286047013.3,N,0.0,0.0
1480178295.5,286047012.9,N,0.0,0.0
1480178315.3,286047015.6,N,0.0,0.0
1480178335.1,286047015.0,N,0.0,0.0
1480178355.9,286047015.1,N,0.0,0.0
1480178375.7,286047012.5,N,0.0,0.0
1480178395.6,286047012.5,N,0.0,0.0
1480178415.4,286047014.2,N,0.0,0.0
1480178435.2,286047016.5,N,0.0,0.0
1480178455.1,286047016.0,N,0.0,0.0
1480178456.0,286047016.0,N,0.0,0.0
1480178475.8,286047016.6,N,0.0,0.0
1480178495.6,286047016.0,N,0.0,0.0
1480178515.5,286047016.0,N,0.0,0.0
1480178535.3,286047017.2,N,0.0,0.0
1480178555.2,286047014.3,N,0.0,0.0
1480178575.9,286047014.8,N,0.0,0.0
1480178595.7,286047014.3,N,0.0,0.0
1480178615.6,286047015.1,N,0.0,0.0
1480178635.4,286047014.4,N,0.0,0.0
1480178655.2,286047014.5,N,0.0,0.0
1480178675.1,286047014.8,N,0.0,0.0
1480178676.0,286047014.8,N,0.0,0.0
1480178695.8,286047017.2,N,0.0,0.0
1480178715.7,286047016.9,N,0.0,0.0
1480178735.5,286047014.1,N,0.0,0.0
1480178755.3,286047015.9,N,0.0,0.0
1480178775.2,286047016.2,N,0.0,0.0
1480178795.0,286047018.7,N,0.0,0.0
1480178795.9,286047018.7,N,0.0,0.0
1480178815.8,286047017.0,N,0.0,0.0
1480178835.6,286047015.7,N,0.0,0.0
1480178855.4,286047018.1,N,0.0,0.0
1480178875.3,286047020.3,N,0.0,0.0
1480178895.1,286047020.3,N,0.0,0.0
1480178915.9,286047021.6,N,0.0,0.0
1480178935.7,286047023.3,N,0.0,0.0
1480178955.5,286047021.4,N,0.0,0.0
1480178975.4,286047022.8,N,0.0,0.0
1480178995.2,286047023.8,N,0.0,0.0
1480179015.0,286047026.7,N,0.0,0.0
1480179016.0,286047026.7,N,0.0,0.0
1480179035.8,286047025.9,N,0.0,0.0
1480179055.6,286047027.9,N,0.0,0.0
1480179075.5,286047027.6,N,0.0,0.0
1480179095.3,286047027.6,N,0.0,0.0
1480179115.1,286047025.6,N,0.0,0.0
1480179135.9,286047028.3,N,0.0,0.0
1480179155.7,286047026.2,N,0.0,0.0
1480179175.6,286047024.3,N,0.0,0.0
1480179195.4,286047024.9,N,0.0,0.0
1480179215.2,286047024.5,N,0.0,0.0
1480179235.1,286047022.1,N,0.0,0.0
1480179236.0,286047022.1,N,0.0,0.0
1480179255.8,286047022.6,N,0.0,0.0
1480179275.7,286047022.2,N,0.0,0.0
1480179295.5,286047025.1,N,0.0,0.0
1480179315.3,286047023.2,N,0.0,0.0
1480179335.2,286047025.2,N,0.0,0.0
1480179355.0,286047024.8,N,0.0,0.0
1480179355.9,286047024.8,N,0.0,0.0
1480179375.7,286047022.1,N,0.0,0.0
1480179395.6,286047023.6,N,0.0,0.0
1480179415.4,286047021.4,N,0.0,0.0
1480179435.3,286047019.0,N,0.0,0.0
1480179455.1,286047018.2,N,0.0,0.0
1480179456.0,286047018.2,N,0.0,0.0
1480179475.8,286047017.2,N,0.0,0.0
1480179495.7,286047015.4,N,0.0,0.0
1480179515.5,286047015.6,N,0.0,0.0
1480179535.4,286047013.4,N,0.0,0.0
1480179555.2,286047011.4,N,0.0,0.0
1480179575.0,286047011.4,N,0.0,0.0
1480179575.9,286047011.4,N,0.0,0.0
1480179595.8,286047012.3,N,0.0,0.0
